{"data":{"norad_id":58308,"epoch":"2026-06-16T04:58:10.987104Z","epoch_age_seconds":8334069,"freshness":"OLD","line1":"1 58308U 23174BE  26167.20707161  .00026582  00000+0  35453-3 0  9992","line2":"2 58308  97.3869 259.2324 0006513 136.1723 224.0051 15.58063756145687","mean_motion":15.58063756,"eccentricity":0.0006513,"inclination_deg":97.3869,"raan_deg":259.2324,"arg_perigee_deg":136.1723,"mean_anomaly_deg":224.0051,"bstar":0.00035453,"rev_number":14568,"period_min":92.422405338335,"perigee_km":388.85105410115,"apogee_km":397.67147748217,"semimajor_km":6771.3982657917,"source":"CELESTRAK","updated_at":"2026-06-16T09:00:34.833954Z"}}